Location: Brno
(49.2000°N, 16.6330°E)
Time: 00:13:41
(UTC+01:00)

RESURS DK-1 - Visible Passes

Search period start: 25 January 2017 00:00
Search period end: 04 February 2017 00:00
Orbit: 556 x 565 km, 69.9° (Epoch: 24 January)

Date Brightness Start Highest point End Pass type
(mag) Time Alt. Az. Time Alt. Az. Time Alt. Az.
26 Jan 5.1 06:19:08 10° NNE 06:20:15 11° NNE 06:21:20 10° NE visible
27 Jan 5.0 06:17:12 10° N 06:19:09 13° NE 06:21:05 10° ENE visible
28 Jan 4.9 06:15:31 10° N 06:18:02 15° NE 06:20:32 10° ENE visible
29 Jan 4.7 06:13:56 10° N 06:16:53 18° NE 06:19:48 10° E visible
30 Jan 4.5 06:12:25 10° N 06:15:43 22° NE 06:18:59 10° E visible
31 Jan 4.3 06:10:56 10° NNW 06:14:31 27° NE 06:18:04 10° ESE visible
01 Feb 3.9 06:09:30 10° NNW 06:13:19 33° NE 06:17:05 10° ESE visible
02 Feb 3.5 06:08:05 10° NNW 06:12:04 42° NE 06:16:00 10° SE visible
03 Feb 5.2 04:30:25 10° NNE 04:31:46 11° NE 04:33:08 10° NE visible
03 Feb 3.1 06:06:43 10° NNW 06:10:48 54° NE 06:14:51 10° SE visible
